Location: Gernrode
(51.3960°N, 10.4022°E)
Time: 12:33:28
(UTC+00:00)

Daily predictions for brighter satellites

Satellite Brightness Start Highest point End
(mag) Time Altitude Azimuth Time Altitude Azimuth Time Altitude Azimuth
SL-16 R/B 4.2 15:46:18 10° WNW 15:50:00 17° NNW 15:53:43 10° NNE
Iridium 2 3.6 15:48:00 10° N 15:51:47 84° E 15:55:31 10° S
SJ-7 4.5 15:48:28 10° SSE 15:52:40 72° ENE 15:56:54 10° N
NOSS 3-1 (A) 4.1 15:45:27 10° NW 15:52:41 79° NE 16:01:16 10° SE
Cosmos 1743 Rocket 4.0 15:49:21 10° N 15:53:23 37° ENE 15:57:25 10° SE
NOSS 3-1 (C) 4.4 15:46:09 10° NW 15:53:26 77° SW 16:02:04 10° SE
Meteor PRIRODA 3.7 15:50:09 10° SSE 15:53:43 57° ENE 15:57:18 10° N
Envisat 4.2 15:49:16 10° S 15:54:10 48° W 15:59:06 10° NNW
USA 276 3.7 15:51:16 10° W 15:54:10 36° SSW 15:57:05 10° SE
ATLAS CENTAUR R/B 2.3 15:50:50 10° WSW 15:54:55 46° NW 15:59:20 10° NE
Okean O Rocket 3.2 15:52:25 10° E 15:54:55 15° NE 15:57:26 10° NNE
USA 234 3.4 15:48:28 10° ESE 15:55:03 88° SSW 16:01:38 10° WNW
NOSS 2-1 (D) 3.2 15:52:44 10° WSW 15:55:54 58° NW 15:59:21 10° NE
COSMOS 2455 4.4 15:53:08 10° SE 15:56:42 16° ESE 16:00:17 10° ENE
NOAA 11 4.3 15:51:34 10° SSE 15:57:00 88° WSW 16:02:30 10° NNW
NOAA 12 4.1 15:52:33 10° SSE 15:57:50 66° ENE 16:03:07 10° N
Cosmos-2242 4.4 15:55:06 10° SW 15:59:08 39° WNW 16:03:11 10° N
NOSS 2-2 (D) 4.4 15:54:58 10° NW 15:59:28 46° NE 16:05:36 10° ESE
NOSS 2-2 (E) 4.3 15:55:22 10° NW 16:00:04 54° NE 16:06:37 10° ESE
Meteor 1-31 Rocket 4.0 15:56:25 10° S 16:00:05 46° W 16:03:48 10° NNW
USA 308 3.0 15:58:21 10° W 16:02:37 73° NNW 16:06:49 10° ENE
Cosmos 1833 Rocket 3.6 15:58:04 10° SSE 16:02:51 30° ESE 16:07:40 10° NE
Spot 1 4.5 15:59:43 10° NNE 16:04:18 56° ESE 16:09:07 10° S
ARGOS 4.2 16:00:32 10° ESE 16:04:39 23° ENE 16:08:45 10° N
Cosmos 2219 Rocket 4.2 16:06:21 10° N 16:07:34 11° N 16:08:47 10° NNE
SL-16 R/B 4.4 16:02:49 10° N 16:07:44 25° NW 16:12:39 10° WSW
Cosmos 1340 Rocket 2.8 16:05:09 10° N 16:09:13 66° ENE 16:13:17 10° SSE
SJ 16-02 3.2 16:05:39 10° NW 16:09:39 35° WSW 16:13:38 10° S
CZ-4C R/B 3.4 16:06:00 10° NNE 16:09:58 77° WNW 16:13:41 10° SSW
Cosmos 1464 Rocket 4.1 16:04:31 10° S 16:10:53 79° E 16:17:17 10° NNE
ISS -3.7 16:10:14 10° W 16:13:39 87° S 16:17:04 10° E
Nadezhda 4 Rocket 4.0 16:10:31 10° N 16:16:52 83° E 16:23:13 10° S
Cosmos 1606 2.8 16:13:44 10° SSW 16:17:29 77° W 16:21:19 10° N
Lacrosse 5 rocket 1.9 16:14:13 10° WNW 16:17:49 38° N 16:20:55 14° ENE
CZ-2D R/B 3.9 16:14:29 10° SE 16:17:55 32° ENE 16:21:22 10° N
Cosmos 2360 4.2 16:14:05 10° NNW 16:19:51 69° ENE 16:25:33 10° SE
CZ-4B R/B 3.7 16:16:13 10° SE 16:21:02 34° ENE 16:25:48 10° N
Meteor 1-20 Rocket 4.3 16:15:22 10° N 16:21:11 68° ENE 16:27:01 10° SSE
CZ-2C R/B 3.8 16:18:12 10° NE 16:22:02 20° E 16:25:48 10° SE
Cosmos 1500 Rocket 3.5 16:17:56 10° N 16:22:24 74° ENE 16:26:49 10° SSE
CZ-4 R/B 3.5 16:23:49 10° NE 16:23:49 10° NE 16:23:59 10° NNE
CZ-4C R/B 3.0 16:16:34 10° NW 16:23:10 54° NE 16:31:03 10° ESE
Cosmos 1818 4.3 16:18:56 10° NW 16:23:54 33° NNE 16:28:21 12° E
Cosmos 540 Rocket 4.3 16:20:16 10° SSE 16:24:41 30° ESE 16:28:34 13° NE
GEOS 3 Rocket 4.2 16:21:21 10° E 16:26:07 37° NNE 16:30:51 10° NW
Cosmos 1500 3.8 16:24:31 10° N 16:27:58 32° ENE 16:31:21 10° SE
CZ-4B R/B 3.3 16:24:05 10° S 16:28:06 64° WSW 16:31:57 10° NNW
Cosmos 44 Rocket 4.2 16:25:19 10° NNW 16:29:47 31° NNE 16:33:01 16° E
SMAP 3.0 16:25:08 10° SSE 16:29:47 80° ENE 16:34:28 10° NNW
USA 305 3.0 16:25:40 10° W 16:29:52 63° N 16:32:56 18° ENE
Cosmos 1092 Rocket 4.0 16:25:16 10° N 16:31:38 67° ENE 16:37:56 10° SSE
CZ-2C R/B 3.5 16:27:08 10° S 16:31:59 61° WSW 16:36:43 10° NNW
MOS 1-B 4.4 16:27:12 10° SE 16:32:48 55° ENE 16:38:26 10° N
Cosmos 1898 Rocket 3.5 16:28:12 10° NNW 16:33:30 90° N 16:38:44 10° SSE
Cosmos 1805 Rocket 3.5 16:29:39 10° N 16:33:58 59° ENE 16:38:14 10° SSE
Cosmos 468 Rocket 4.1 16:29:14 10° S 16:34:16 57° ESE 16:39:17 11° NNE
Sich 1 3.2 16:30:27 10° N 16:34:37 47° ENE 16:38:47 10° SSE
Cosmos 1428 Rocket 4.4 16:30:16 10° N 16:36:22 63° ENE 16:42:27 10° SSE
Cosmos 1933 3.5 16:33:38 10° S 16:37:33 48° E 16:41:27 10° NNE
Cosmos 2360 Rocket 3.7 16:35:18 10° NNW 16:38:56 17° NNE 16:40:26 15° NE
Cosmos 1842 Rocket 3.9 16:35:49 10° SSW 16:40:16 68° WNW 16:44:46 10° N
Cosmos 2221 3.1 16:36:09 10° SSW 16:40:22 58° WNW 16:44:39 10° N
PSLV R/B 3.6 16:39:26 10° SSE 16:43:05 66° ENE 16:46:49 10° N
SL-08 R/B 4.0 16:39:29 10° N 16:44:09 55° WNW 16:48:41 10° SW
Cosmos 1627 Rocket 4.4 16:46:09 10° N 16:52:22 79° E 16:58:30 10° SSE
deb Chang Zheng 4 3.7 16:48:43 10° SE 16:52:50 47° ENE 16:57:01 10° N
AQUARIUS 4.4 16:48:56 10° S 16:53:25 73° WSW 16:57:57 10° NNW
Meteor 1-14 Rocket 4.4 16:50:05 10° N 16:55:47 54° ENE 17:01:33 10° SSE
H-2A R/B 1.9 16:50:38 10° SSE 16:55:47 73° ENE 17:00:50 10° NNW
NOSS 2-2 (C) 4.2 16:52:05 10° NW 16:57:00 89° NE 17:03:54 10° SE
Cosmos 2034 Rocket 4.2 16:51:01 10° SSW 16:57:10 72° WNW 17:03:21 10° N
Cosmos 1666 3.0 16:54:09 10° N 16:57:40 38° ENE 17:01:09 10° SE
Cosmos 2322 Rocket 3.2 16:54:00 10° NNW 16:58:45 26° NE 17:00:05 24° ENE
ERBS 3.1 16:55:44 10° W 16:58:46 38° NNW 16:59:46 29° NNE
USA 306 3.1 16:57:46 10° W 17:02:00 60° N 17:03:44 32° ENE
Cosmos 1697 Rocket 3.2 16:56:31 10° NW 17:02:04 61° WSW 17:07:34 10° SSE
USA 267 3.2 16:58:13 21° ENE 17:02:52 89° SE 17:09:26 10° WSW
Cosmos 2279 Rocket 4.2 16:57:26 10° SSE 17:03:16 45° E 17:09:09 10° NNE
SJ-11-01 4.4 16:59:30 10° SE 17:04:08 54° ENE 17:08:46 10° N
Cosmos 2369 3.8 16:59:43 10° NNW 17:05:30 82° WSW 17:11:13 10° SSE
Cosmos 1980 Rocket 2.1 17:00:18 10° NNW 17:06:02 84° ENE 17:11:41 10° SSE
COSMO-SKYMED 1 3.0 17:05:08 29° NE 17:06:46 40° E 17:10:52 10° SSE
MOS 1-B Rocket 4.0 17:01:12 10° NNE 17:06:56 59° ESE 17:13:22 10° S
Meteor 1-5 Rocket 4.3 17:02:03 10° N 17:08:00 60° ENE 17:13:51 10° SSE
Cosmos 1763 Rocket 3.5 17:04:03 10° SSW 17:09:07 77° WNW 17:13:30 14° NNE
Cosmos 1939 Rocket 4.5 17:05:50 10° SSW 17:09:41 38° W 17:13:31 10° NNW
SL-24 R/B - RUBIN 2 3.7 17:06:31 10° NW 17:11:09 77° SW 17:15:29 10° SE
Meteor 2-21 4.4 17:05:21 10° NNW 17:11:29 86° W 17:17:32 10° S
H-2A R/B 4.4 17:17:11 15° N 17:17:11 15° N 17:17:59 10° N
Cosmos 841 Rocket 3.5 17:09:30 10° S 17:14:34 59° ESE 17:17:15 27° NE
Cosmos 1937 Rocket 4.1 17:09:45 10° NNW 17:15:00 60° WSW 17:20:13 10° S
SL-16 R/B 2.7 17:10:45 10° NNW 17:16:02 38° NE 17:17:26 33° ENE
Cosmos 1812 2.8 17:12:30 10° S 17:16:13 49° E 17:16:32 48° ENE
Cosmos 1125 Rocket 4.0 17:11:32 10° NNW 17:16:22 36° NE 17:17:07 34° ENE
Cosmos 1633 Rocket 3.0 17:13:35 10° N 17:17:56 61° ENE 17:22:16 10° SSE
Cosmos 2237 Rocket 4.3 17:17:36 10° N 17:18:47 11° N 17:19:43 10° NNE
Cosmos 1634 Rocket 4.0 17:12:27 10° S 17:18:47 85° E 17:25:10 10° N
USA 307 3.0 17:16:04 10° W 17:20:20 60° N 17:21:20 46° NE
YAOGAN 1 3.4 17:22:20 33° NNE 17:22:20 33° NNE 17:25:16 10° N
Cosmos 2082 Rocket 2.3 17:16:38 10° S 17:22:09 55° ESE 17:24:28 33° NE
Cosmos 2026 Rocket 4.3 17:17:11 10° NNW 17:23:18 68° W 17:29:18 10° S
Cosmos 2333 Rocket 3.7 17:20:23 10° NNW 17:24:11 19° NNE 17:24:11 19° NNE
Cosmos 372 Rocket 4.3 17:24:09 10° NNW 17:29:21 68° WSW 17:34:33 10° SSE
Cosmos 2278 3.6 17:24:14 10° NNW 17:29:59 90° SW 17:35:41 10° SSE
ATLAS 2AS CENTAUR R/B 3.9 17:23:31 10° WNW 17:30:17 32° N 17:33:28 23° NE
Okean O Rocket 1.5 17:26:10 10° SSE 17:30:37 89° E 17:35:07 10° NNW
SKYMED 3 4.4 17:29:31 40° NNE 17:30:58 69° ESE 17:35:17 10° S
ATLAS CENTAUR R/B 3.5 17:31:42 10° WNW 17:34:52 19° NNW 17:36:14 17° N
Cosmos 1655 Rocket 4.0 17:29:31 10° N 17:35:52 58° ENE 17:42:08 10° SSE
SL-16 R/B 4.5 17:36:05 10° N 17:36:45 10° N 17:37:25 10° N
Cosmos 1151 Rocket 2.8 17:32:49 10° S 17:37:08 76° E 17:38:08 51° NNE
Cosmos 1782 3.3 17:33:16 10° SSW 17:37:13 59° WNW 17:39:44 21° N
COSMOS 2406 3.3 17:34:06 10° SW 17:39:52 77° WNW 17:43:05 27° NNE
COSMOS 2455 2.7 17:35:41 10° SSW 17:41:41 76° SE 17:43:55 41° NE
Cosmos 1666 Rocket 3.9 17:38:22 10° NNW 17:42:48 66° W 17:47:11 10° S
USA 308 2.9 17:38:34 10° WNW 17:42:49 62° N 17:42:51 62° N
Meteor 2-15 4.4 17:37:15 10° SSE 17:43:10 54° E 17:45:42 33° NE
ARGOS 3.3 17:38:59 10° S 17:44:24 75° WSW 17:49:50 10° NNW
Cosmos 1470 Rocket 3.9 17:41:31 10° N 17:45:00 51° NNE 17:45:00 51° NNE
Cosmos 1833 Rocket 3.2 17:40:56 10° SW 17:46:29 57° NW 17:49:48 24° NNE
Cosmos 2180 Rocket 4.4 17:43:18 10° S 17:49:36 74° E 17:55:53 10° NNE
ISS -2.3 17:47:11 10° W 17:50:10 33° SW 17:50:10 33° SW
Meteor 2-6 Rocket 4.1 17:45:38 10° S 17:51:21 71° E 17:53:25 40° NNE
Cosmos 1328 Rocket 3.6 17:47:03 10° S 17:50:52 64° SSE 17:50:52 64° SSE
Cosmos 2219 Rocket 3.8 17:49:35 10° NNW 17:52:21 19° NNE 17:52:21 19° NNE
SKYMED 2 3.7 17:53:45 46° N 17:54:56 72° WNW 17:59:15 10° SSW
CZ-4 R/B 3.5 17:59:49 17° NNW 17:59:49 17° NNW 18:00:49 10° NNW
Lacrosse 5 rocket 1.7 17:53:17 10° WNW 17:56:31 59° WNW 17:56:31 59° WNW
Landsat 5 4.1 18:00:26 48° SSW 18:00:26 48° SSW 18:03:22 10° SSW
Cosmos 2298 Rocket 3.9 17:54:27 10° NNW 17:59:50 80° ENE 18:00:27 69° SE
NOAA 15 4.5 17:55:43 10° SSE 18:01:01 89° ENE 18:06:20 10° NNW
CZ-4B R/B 4.2 17:56:18 10° S 18:01:30 45° W 18:06:38 10° NNW
Cosmos 1570 Rocket 3.8 17:56:45 10° SSW 18:01:59 79° ESE 18:02:05 78° E
Meteor 2-8 Rocket 4.3 17:56:37 10° S 18:02:46 86° E 18:08:05 15° NNE
CZ-2C R/B 2.8 17:59:22 21° N 18:02:52 69° WNW 18:07:59 10° SSW
ATLAS CENTAUR R/B 2.2 17:55:53 10° WSW 18:03:22 74° NNW 18:03:24 74° NNW
GEOS 3 Rocket 3.7 18:02:08 41° SSE 18:03:57 72° SW 18:09:09 10° NW
SL-08 RB Rocket 4.0 17:59:37 10° S 18:04:14 65° WSW 18:08:50 10° NNW
Cosmos 540 Rocket 4.3 18:01:12 10° SW 18:06:07 47° WNW 18:08:24 28° N
Meteor 1-11 Rocket 3.5 18:01:41 10° N 18:07:18 78° ENE 18:07:51 71° SE
Cosmos 1818 3.6 18:02:29 10° NW 18:07:58 76° SW 18:09:03 57° SSE
Meteor 1-10 Rocket 4.1 18:03:40 10° S 18:09:02 70° SE 18:09:02 70° SE
Cosmos 1814 Rocket 3.9 18:04:30 10° SSW 18:09:45 82° WNW 18:10:09 75° N
USA 305 3.7 18:05:46 10° WNW 18:08:56 48° WNW 18:08:56 48° WNW
Cosmos 44 Rocket 3.4 18:06:48 10° NW 18:11:45 71° SW 18:11:46 71° SW
CZ-4C R/B 3.4 18:05:03 10° NW 18:12:04 60° SW 18:20:10 10° SSE
Cosmos 2360 Rocket 3.2 18:18:45 10° NNW 18:22:13 35° N 18:22:13 35° N
COSMO-SKYMED 1 4.4 18:42:21 27° NW 18:42:47 27° WNW 18:46:27 10° WSW
Cosmos 2322 Rocket 2.8 18:37:45 10° NNW 18:41:55 50° NW 18:41:55 50° NW
USA 267 3.5 18:45:34 58° N 18:45:42 58° N 18:52:05 10° W
SL-16 R/B 3.1 18:54:51 10° NW 18:59:20 45° W 18:59:20 45° W
Cosmos 2082 Rocket 3.5 19:01:19 10° WSW 19:06:20 35° NW 19:06:20 35° NW
Cosmos 2333 Rocket 4.1 19:04:14 10° NNW 19:06:11 22° NNW 19:06:11 22° NNW
ATLAS 2AS CENTAUR R/B 3.9 19:16:01 10° NW 19:20:53 34° NNW 19:20:53 34° NNW
COSMOS 2455 4.4 19:22:47 10° W 19:27:05 31° NW 19:27:05 31° NW
